Theta_e
339 339 339 340 339 339 339 338 335 330 326 324 324 329 331 330 329 329 329 328 327 326 325 324 325 327 332 333 334 333 329 328 329 328 328 328 328 326 322 319 318 319 319
338 339 339 338 339 339 338 338 336 332 327 326 325 328 329 329 328 328 328 328 327 326 325 325 325 326 328 329 330 329 329 329 329 329 328 328 328 327 326 323 321 320 320
337 338 339 339 338 337 337 338 336 333 329 327 327 327 329 330 328 327 326 325 326 325 325 326 326 325 326 328 330 329 329 329 329 328 327 329 327 328 327 326 323 322 324
338 339 338 338 338 338 337 338 338 333 332 330 328 327 330 330 327 326 325 324 324 323 324 326 327 327 325 326 329 333 331 329 329 328 328 328 328 326 328 327 326 324 324
336 338 338 338 337 337 336 336 337 337 335 335 332 330 329 329 328 327 326 325 323 324 324 326 326 327 328 328 327 329 330 330 328 328 328 327 327 322 327 328 328 327 325
335 337 337 336 336 337 337 336 336 336 335 335 334 333 332 330 328 328 327 326 324 324 324 325 326 326 327 328 329 329 329 329 329 328 327 327 326 323 321 327 329 328 326
333 335 335 335 337 337 336 336 335 334 335 335 335 334 334 334 333 331 329 327 326 326 324 325 325 325 325 327 329 330 329 329 329 328 327 327 326 323 320 325 329 328 328
333 332 335 336 336 336 335 335 335 335 334 333 334 332 330 330 332 332 331 330 328 327 326 325 324 326 326 328 330 330 329 328 326 326 326 325 325 326 324 329 330 329 329
331 331 332 332 333 332 332 333 334 333 333 332 333 332 329 327 323 328 330 330 329 328 328 327 326 326 328 329 330 328 328 325 324 324 323 323 325 325 329 330 330 330 330
326 330 330 332 332 331 331 332 332 332 331 331 331 333 332 327 325 325 325 326 326 327 327 326 327 329 328 328 327 324 323 321 323 324 323 324 330 330 330 329 329 330 329
325 328 328 330 331 331 330 331 331 330 331 331 331 330 330 329 328 326 328 325 326 326 326 327 327 326 325 324 322 322 323 323 324 323 324 327 328 329 328 329 329 328 328
326 327 327 328 329 329 330 330 331 330 329 329 331 330 329 328 328 328 327 325 322 323 323 323 323 322 321 321 321 321 323 323 323 323 324 326 327 327 327 327 328 328 328
323 326 326 327 328 329 329 329 328 329 330 329 328 328 328 328 328 327 327 325 324 324 324 324 324 322 321 321 321 323 323 323 323 322 321 322 322 321 320 321 322 326 327
320 322 323 325 325 326 329 329 328 326 327 328 328 326 327 327 327 326 325 325 321 320 320 321 321 321 321 323 323 323 323 322 321 320 318 318 318 318 319 319 320 322 323
320 320 322 324 324 325 326 326 327 326 327 327 326 326 326 326 326 326 325 323 321 321 320 321 322 323 323 323 321 319 318 317 317 316 314 313 313 313 314 316 318 319 320
318 321 323 322 324 323 324 325 325 324 324 325 326 326 326 325 324 323 323 323 322 321 323 323 321 319 317 316 314 313 312 312 312 311 311 311 311 311 311 312 313 315 317
319 320 320 320 320 319 320 320 322 321 323 324 324 324 321 321 321 318 319 317 314 314 313 314 312 310 309 308 308 307 306 305 304 302 303 304 304 305 307 308 309 312 314
314 316 317 315 314 314 314 315 315 311 318 315 315 312 313 313 311 310 309 307 307 307 307 308 307 306 303 303 303 302 302 302 301 301 302 302 303 303 303 304 305 309 311
309 311 310 309 307 306 307 307 308 309 305 308 307 308 307 307 306 304 303 302 301 300 301 301 301 300 299 298 298 299 298 299 300 300 300 301 301 301 303 304 304 304 306
304 305 305 304 305 303 303 302 303 304 302 302 301 300 299 298 298 298 298 297 297 297 297 297 297 297 297 296 297 297 298 298 298 296 296 297 299 300 300 301 301 302 303
300 300 299 300 300 300 300 299 299 300 299 299 298 297 297 297 298 297 296 295 295 295 295 295 295 295 296 296 296 296 295 295 296 295 295 297 296 297 297 298 298 300 301
298 298 296 295 294 295 297 297 298 297 297 296 296 295 294 295 295 295 294 292 293 293 293 292 292 292 292 292 292 293 293 292 293 294 296 295 297 297 297 297 298 300 300
295 296 295 293 293 293 294 294 294 294 293 293 293 293 293 293 292 292 291 290 290 290 291 291 291 291 291 291 291 291 292 292 293 294 294 295 295 295 296 297 297 298 299
294 295 295 294 291 292 293 293 293 293 293 292 292 292 291 291 292 291 291 290 289 289 289 290 290 290 290 290 291 293 294 293 293 293 294 294 294 295 296 296 297 298 298
292 293 293 292 291 291 291 292 292 292 292 291 291 291 291 291 291 291 290 289 289 289 288 289 289 289 289 290 291 292 292 292 292 293 293 293 294 295 295 296 297 297 297
291 292 291 291 291 291 290 290 291 291 291 290 290 290 290 290 291 291 290 289 288 288 288 288 287 287 287 288 289 290 291 291 291 292 294 293 293 293 294 295 296 296 295
Wind_Speed
21 22 27 28 25 24 24 23 21 21 22 21 21 20 19 17 17 15 15 15 14 14 13 14 15 14 14 13 12 13 13 11 11 11 10 11 13 12 12 11 10 9 7
21 26 28 27 25 24 23 24 23 21 21 20 21 22 21 19 17 18 18 20 19 17 16 14 17 17 16 14 14 13 13 14 13 13 12 11 14 15 15 14 13 12 10
24 22 27 27 24 23 23 23 24 22 22 22 24 23 24 23 23 21 20 18 18 19 19 18 16 19 19 18 17 16 15 15 16 16 16 15 13 17 16 16 15 14 13
26 25 26 25 23 23 25 27 24 24 22 20 21 25 23 22 23 24 22 22 23 23 22 21 20 19 21 22 20 19 19 18 17 19 18 17 16 16 18 18 18 17 15
28 23 24 24 23 24 24 25 29 27 27 24 18 16 20 22 22 22 23 23 23 24 24 23 23 21 21 20 21 21 21 20 19 20 18 17 17 17 18 19 20 19 18
27 28 27 26 26 25 26 25 27 30 27 24 21 22 23 23 23 25 27 27 26 25 25 26 26 26 25 24 23 21 20 19 18 20 19 17 17 17 18 19 21 22 21
31 30 30 29 25 25 26 22 21 22 21 21 15 16 21 24 24 27 25 27 29 31 30 27 27 29 28 24 24 23 20 19 19 19 20 16 17 17 19 21 22 24 25
27 29 32 29 30 25 23 19 19 20 19 17 8 6 2 8 21 29 30 29 33 32 33 34 31 30 29 27 26 24 20 16 17 19 16 17 21 21 21 22 23 26 29
28 25 26 28 24 23 20 19 20 20 18 18 19 11 1 4 2 13 24 31 34 35 34 32 33 31 29 26 24 21 21 16 16 16 20 22 23 23 23 25 27 28 31
31 31 24 24 27 24 23 24 23 22 20 20 20 24 26 13 3 4 10 17 25 30 29 30 24 21 21 21 19 19 19 20 20 20 21 21 22 22 23 28 30 30 31
28 30 34 30 24 23 25 24 22 23 22 23 24 18 20 19 22 13 10 7 12 15 18 17 15 13 14 15 16 18 21 23 22 23 25 24 22 24 28 30 33 31 35
23 26 28 32 35 30 26 24 23 24 25 26 25 25 22 13 11 14 9 7 7 10 14 13 18 17 17 22 25 27 25 22 25 27 26 23 22 25 28 30 31 27 25
25 26 26 23 24 27 24 22 23 24 25 27 25 23 24 26 24 20 16 7 5 16 15 23 26 23 22 25 26 25 23 24 23 22 21 21 22 25 24 26 27 24 21
27 24 25 23 24 21 22 23 24 25 26 25 25 26 25 26 28 27 22 10 2 5 8 12 17 22 22 23 23 20 21 17 15 20 24 26 26 26 27 27 26 24 25
19 19 17 15 15 14 16 21 23 22 24 24 25 27 26 24 27 27 26 18 8 3 3 7 12 8 10 10 6 7 12 16 20 23 25 26 28 28 29 29 27 25 28
16 13 14 14 13 11 14 15 20 21 23 26 25 25 25 21 14 12 14 15 17 13 4 8 2 4 2 6 13 16 19 21 23 24 25 25 26 26 26 26 27 26 27
12 9 4 2 3 8 13 13 16 22 24 22 22 22 12 10 7 7 5 5 5 3 2 2 7 12 15 16 19 20 22 23 25 26 27 28 28 29 27 26 27 26 28
8 7 5 6 7 5 3 4 5 4 8 8 10 9 13 10 10 8 6 6 6 6 2 1 9 9 15 15 18 21 21 21 23 23 24 26 27 28 28 28 27 29 30
14 12 12 14 12 10 10 10 11 13 9 13 10 11 9 8 9 7 5 5 6 5 4 3 6 9 15 16 19 19 20 22 21 21 24 26 27 28 27 27 27 27 26
15 18 15 14 16 12 11 11 11 16 9 10 11 11 10 11 10 9 8 8 7 7 7 7 7 12 14 18 16 20 20 20 23 26 26 24 26 26 27 28 31 28 28
12 13 13 13 13 10 9 7 13 11 9 11 11 11 12 12 11 9 9 9 9 9 9 9 9 11 13 15 15 16 18 21 24 24 26 22 31 33 34 35 32 28 26
11 12 13 14 14 12 8 10 8 8 7 9 11 11 8 7 6 5 6 6 7 9 10 8 7 9 14 18 18 18 19 19 8 12 20 28 26 31 34 35 32 30 29
8 10 12 11 11 10 9 8 8 8 8 8 7 6 6 7 6 8 10 11 10 8 7 10 13 14 17 19 21 20 20 18 18 23 25 21 25 30 33 31 34 31 31
6 6 6 6 7 8 8 7 7 6 7 6 6 5 5 4 8 11 14 15 15 14 12 11 13 16 18 20 21 22 22 22 22 26 24 13 25 28 31 32 32 27 28
4 4 3 2 4 6 6 5 3 4 4 5 5 6 6 6 9 12 16 18 19 17 14 13 15 15 17 17 17 18 15 16 12 17 23 18 17 22 26 29 20 18 24
4 4 3 1 1 1 3 4 2 3 3 5 4 5 3 6 10 12 14 15 15 16 17 19 18 15 15 15 15 15 18 15 15 10 7 8 17 13 7 8 14 21 23
Wind_Direction
237 236 223 214 215 219 223 227 231 234 233 231 226 227 225 225 225 235 235 235 242 246 251 247 242 239 238 247 254 259 260 265 268 268 279 280 277 269 265 265 267 272 281
237 236 222 219 220 224 228 227 231 232 235 232 229 226 233 229 234 234 240 244 246 247 249 250 250 246 242 242 241 249 258 265 272 272 278 282 269 269 268 263 264 268 271
233 232 224 223 227 226 228 226 230 232 236 240 237 231 233 237 241 247 247 247 245 251 258 257 258 258 251 248 246 248 252 262 269 276 279 282 280 267 269 266 261 264 269
231 231 227 228 231 229 228 228 228 223 231 239 237 232 234 250 245 247 249 252 254 256 257 257 258 261 258 254 255 256 259 262 269 273 277 285 291 281 272 267 262 261 259
233 233 236 239 233 233 234 231 233 233 234 237 238 241 244 246 244 247 252 254 255 257 255 256 260 261 260 260 258 261 263 265 265 268 270 283 289 285 275 270 265 260 258
236 236 238 239 237 233 232 235 236 235 239 241 236 251 255 256 251 249 257 258 255 255 258 259 258 259 260 261 257 261 265 267 261 260 261 268 281 282 283 270 261 258 256
240 231 234 233 231 227 227 228 235 236 236 237 238 245 257 259 262 256 251 251 252 255 252 254 256 261 262 261 258 255 256 267 268 258 255 264 270 277 277 266 260 261 254
242 241 230 228 226 218 219 219 224 237 240 245 230 249 273 273 252 249 252 254 253 250 252 255 257 259 258 254 256 261 263 263 270 267 255 266 275 277 275 266 259 260 255
243 244 241 230 221 217 218 222 231 237 236 246 246 219 223 233 289 243 247 253 251 254 254 254 262 259 252 247 255 271 270 268 269 265 275 280 279 283 279 274 270 268 264
252 237 240 240 233 230 226 229 234 237 239 244 247 243 242 249 222 281 242 251 252 257 259 258 246 240 247 252 263 269 270 274 274 275 289 293 283 285 285 283 281 278 275
252 249 240 239 239 231 235 230 232 238 238 243 241 243 249 250 255 251 268 255 244 243 235 231 239 245 255 261 280 293 279 286 283 291 293 288 288 288 288 286 284 287 292
260 246 244 240 242 240 241 242 241 241 243 244 246 247 241 241 235 231 244 240 217 239 224 251 270 270 270 278 280 282 276 284 284 289 288 290 295 295 292 291 291 289 287
262 252 242 242 236 237 236 241 243 246 245 245 245 243 245 244 243 241 232 232 213 239 255 256 264 264 269 272 273 273 277 282 287 293 300 305 303 299 298 299 296 291 279
264 266 249 250 256 244 238 239 245 246 244 249 246 247 247 245 245 249 236 219 212 236 242 246 265 262 273 273 274 276 281 290 295 301 307 307 305 302 298 297 294 287 281
274 268 255 260 259 259 246 247 246 248 248 254 258 260 259 251 254 245 233 220 210 216 238 260 238 246 240 252 278 298 306 302 302 303 304 306 306 306 305 298 292 284 282
259 255 235 237 240 248 249 252 259 260 264 264 261 263 258 238 239 255 253 252 245 233 244 228 140 82 360 322 317 310 308 304 304 304 299 299 302 303 303 304 301 291 284
242 217 186 215 268 284 288 278 264 266 259 257 253 247 226 242 197 148 143 128 96 77 59 341 340 323 322 323 315 311 312 315 316 316 318 318 312 307 305 304 300 290 286
157 158 160 129 90 89 109 200 169 82 184 153 155 135 128 122 114 96 86 67 57 50 61 262 306 316 318 319 315 314 319 319 319 320 319 317 316 315 315 318 316 296 285
125 126 120 106 94 89 91 86 97 106 43 97 91 106 94 102 83 77 63 50 26 16 18 339 312 316 321 323 327 324 322 320 326 325 322 319 317 314 312 308 311 316 301
98 103 104 102 94 77 72 75 77 69 77 74 80 79 91 78 81 84 71 49 29 19 8 347 321 315 323 327 325 326 324 323 318 320 316 315 314 315 313 309 310 310 310
77 87 93 94 92 86 74 78 80 103 115 102 89 83 79 77 88 73 57 34 20 11 360 348 330 321 325 333 339 330 324 320 315 313 306 311 314 312 310 310 308 310 315
94 95 93 83 80 85 87 79 91 98 97 84 86 93 90 87 76 40 16 9 15 1 348 329 311 319 316 320 325 323 320 313 310 322 312 306 308 309 310 311 312 307 310
81 80 73 77 84 83 93 90 94 92 89 86 90 99 74 59 28 12 2 359 356 347 332 322 317 319 317 320 318 313 305 299 296 300 305 302 307 300 305 309 311 306 307
74 70 77 74 67 64 79 80 85 84 82 73 62 55 52 54 26 6 350 346 347 341 339 333 321 314 310 305 304 307 302 301 302 311 312 297 301 296 309 313 313 310 303
114 113 107 60 51 47 42 72 96 96 74 56 45 30 10 7 4 360 346 338 331 332 332 324 316 311 311 309 307 314 313 320 315 310 306 297 301 308 310 311 311 326 325
159 164 168 141 101 95 37 54 64 66 47 28 30 28 43 6 350 344 332 328 322 327 326 321 319 320 318 318 317 315 324 312 309 306 300 316 301 305 308 294 319 327 327